Theta_e
352 352 351 352 352 351 349 348 347 348 348 348 348 348 348 348 348 347 347 347 346 347 347 349 350 350 350 350 351 351 351 351 352 353 351 348 347 350 351 351 350 348 346 345 348 350 350 353 354 353 352 351 353 353 351 350 350 350 351 352 352 353 352 351 350 351 353 353 350 349 349 349 350 351 350 349 347 346 345 346 346 346 346 346 347
352 353 353 353 352 352 351 350 349 349 349 348 348 348 347 347 347 346 346 346 346 346 347 349 349 350 350 350 349 349 349 350 351 352 353 353 350 349 350 350 348 346 345 343 344 346 348 351 352 353 352 352 353 354 351 350 349 349 350 351 351 351 350 350 349 349 353 353 349 345 344 347 349 348 349 349 348 347 347 349 350 348 347 348 348
352 352 353 353 352 352 352 351 350 350 349 349 349 348 347 346 347 346 345 345 346 347 347 348 348 348 349 349 348 348 348 350 352 352 353 354 354 352 351 353 353 351 347 346 346 346 348 349 351 353 354 354 354 355 353 351 350 350 350 351 351 352 351 351 352 351 352 352 348 344 343 344 346 348 348 348 348 348 348 350 349 348 348 350 351
353 353 353 353 352 352 352 351 350 350 349 349 348 348 347 346 346 346 345 345 345 346 346 347 347 348 349 349 348 349 349 351 352 353 353 353 354 353 351 351 354 353 351 353 353 352 352 353 354 354 356 355 354 354 354 353 352 351 351 351 351 352 352 351 351 348 349 351 349 344 343 344 346 347 347 347 347 348 349 349 347 347 350 352 354
354 353 353 354 353 353 352 351 350 350 349 349 347 347 346 346 346 345 346 346 345 345 346 346 346 346 347 349 350 350 350 351 350 351 353 354 353 354 353 353 353 351 352 354 356 356 355 355 356 355 355 356 353 352 353 353 352 351 350 349 350 351 350 348 345 341 343 348 348 345 344 347 348 348 347 347 347 347 349 348 346 347 350 352 353
354 354 354 354 354 352 352 351 350 349 349 348 347 346 346 345 345 346 346 345 346 347 346 346 345 344 347 349 350 350 349 348 347 345 349 353 353 353 355 355 355 354 354 355 355 355 354 355 355 355 355 355 353 352 352 352 351 350 348 347 348 349 349 346 344 342 341 345 347 346 345 346 347 348 347 348 348 349 349 348 347 348 349 350 351
354 354 354 355 355 354 352 351 350 349 348 347 346 345 345 345 345 346 347 346 346 346 348 348 346 345 346 348 350 350 348 349 347 344 346 351 352 353 353 355 356 355 354 354 355 355 355 354 354 354 354 354 352 353 353 352 351 350 350 351 349 349 348 346 346 347 346 345 346 347 346 345 346 348 349 349 350 349 347 346 346 346 348 350 352
354 354 355 356 355 354 353 352 351 349 349 347 347 346 346 346 346 345 346 347 348 348 348 349 349 347 346 346 348 350 351 352 351 348 347 349 351 354 354 354 354 354 353 354 354 354 355 354 353 354 354 353 353 354 353 353 353 351 352 352 350 348 347 346 347 349 350 348 347 347 347 346 347 348 349 348 349 348 346 345 344 344 345 349 352
355 355 355 357 357 355 353 352 351 351 350 349 348 347 346 346 346 346 346 347 349 350 349 350 352 352 351 350 350 351 351 351 352 352 350 350 351 354 356 355 354 352 353 354 353 354 354 354 353 353 353 353 353 354 353 353 353 352 350 350 349 348 347 347 347 347 348 348 347 348 348 348 348 347 347 347 347 347 346 346 345 344 345 348 350
355 354 353 354 355 356 355 354 353 352 351 350 350 349 348 347 347 347 347 347 349 352 352 351 351 352 353 353 352 352 352 352 352 352 350 349 350 351 353 354 353 352 354 355 354 354 354 353 352 352 352 352 352 353 353 352 352 351 349 348 349 349 350 349 348 347 348 347 345 346 347 348 347 347 348 348 347 347 348 347 346 346 346 348 351
354 352 350 350 352 354 354 354 354 353 353 352 351 351 350 349 349 348 348 349 350 352 353 352 351 351 351 351 353 353 353 352 351 350 350 350 350 349 349 349 347 349 352 353 354 355 353 352 352 350 349 350 350 351 351 349 348 349 348 347 348 349 349 349 348 348 348 347 345 345 346 347 346 347 348 348 348 347 347 347 347 347 348 350 351
355 352 352 350 351 351 350 351 352 353 353 352 350 351 351 350 349 349 349 349 349 350 350 350 351 351 350 351 354 354 353 351 351 350 349 350 351 349 347 346 345 347 350 351 354 354 352 350 350 349 349 351 351 351 350 349 348 349 348 347 347 347 348 347 348 348 347 346 346 346 346 347 347 348 348 347 346 347 347 347 348 348 349 350 349
356 354 352 351 351 350 348 348 349 351 351 351 351 352 351 350 350 350 349 349 349 349 349 350 351 352 351 352 352 353 352 351 350 351 350 350 351 351 348 347 347 347 349 352 354 352 348 346 346 348 349 351 350 351 350 349 349 348 348 349 347 347 347 348 347 347 346 347 346 346 346 347 347 347 347 346 346 347 347 348 348 348 348 347 347
356 356 354 352 352 351 350 349 349 349 349 350 351 352 350 349 349 348 348 349 349 349 350 351 350 351 352 352 352 352 352 351 351 352 351 349 350 351 350 348 348 348 350 351 351 348 346 345 347 350 349 348 348 349 348 347 347 347 348 349 348 347 347 347 347 347 347 347 347 347 347 348 348 347 347 347 347 347 347 347 346 346 345 345 345
357 356 355 354 353 352 352 350 349 349 348 347 347 346 345 345 344 344 345 345 346 348 350 351 351 350 350 351 351 353 354 352 352 352 351 350 348 349 350 350 349 350 350 350 349 349 349 348 348 350 350 349 348 348 346 347 348 349 349 349 348 347 347 346 346 348 349 349 349 349 349 349 349 348 348 348 347 347 347 346 344 343 344 344 343
355 353 353 354 354 353 353 352 350 349 348 347 345 343 342 343 342 343 344 343 343 344 347 349 351 352 351 351 351 351 352 353 353 351 350 349 348 349 350 350 350 350 350 350 349 350 352 350 349 349 349 348 347 346 346 347 347 347 349 349 348 347 347 347 347 348 349 349 349 349 349 349 348 347 347 347 347 346 346 345 344 342 341 341 340
353 351 352 353 354 353 352 351 350 350 349 348 347 345 343 344 344 344 344 343 342 343 344 346 348 349 351 352 352 351 351 352 352 351 348 348 348 349 350 350 350 350 349 349 349 349 351 351 350 348 347 347 347 346 347 346 345 346 346 347 347 347 347 346 346 346 347 347 347 347 346 346 346 346 346 346 345 345 344 342 341 340 338 337 337
351 351 351 352 352 351 351 350 350 350 349 349 349 348 347 346 345 345 345 346 346 344 341 342 343 344 346 347 348 349 350 351 350 349 348 348 348 348 349 351 351 350 349 349 348 348 350 350 348 347 346 346 346 346 346 346 346 346 346 347 347 348 348 347 347 346 346 345 345 344 344 343 344 343 343 343 342 340 338 334 331 331 330 330 333
349 350 350 349 349 350 351 350 350 349 350 350 349 350 350 349 348 347 346 347 348 346 343 342 343 342 341 341 342 346 349 349 348 348 348 347 347 347 347 350 351 351 350 349 348 347 348 349 348 346 346 346 345 346 346 346 346 347 347 347 347 348 349 349 347 346 345 344 343 342 341 341 341 341 340 338 336 331 327 323 320 319 317 319 326
346 346 345 345 346 347 349 350 350 349 350 350 349 350 351 350 349 348 347 346 347 349 348 345 344 343 343 343 345 347 348 348 348 348 347 347 347 346 347 349 351 350 350 350 350 349 348 348 347 346 346 346 346 346 346 347 346 347 347 347 348 348 349 348 347 346 345 343 341 339 337 335 335 335 332 329 325 321 318 315 314 313 310 312 320
345 344 345 346 345 345 347 348 348 347 347 348 349 350 351 351 349 349 349 347 347 349 349 349 348 348 348 347 347 347 348 347 347 346 345 345 346 346 347 349 350 350 350 351 351 349 347 347 348 348 347 346 346 346 346 346 346 345 345 345 346 347 347 347 346 345 343 340 338 336 333 330 328 327 325 320 315 313 312 309 309 308 306 306 314
346 345 346 346 345 345 345 346 346 345 346 347 348 350 351 351 349 349 350 349 349 348 349 349 349 349 349 348 347 347 346 345 345 345 344 344 345 345 346 347 348 349 350 350 350 347 346 348 348 348 347 347 346 346 345 345 345 343 341 340 341 344 345 345 344 341 338 336 334 331 328 327 328 327 323 317 311 308 307 307 306 306 306 305 306
346 345 344 344 344 345 346 346 345 345 345 345 346 348 350 350 349 349 350 350 350 349 349 349 348 347 348 347 346 347 347 346 346 345 345 344 345 345 346 347 347 348 348 348 348 347 347 348 348 349 348 347 347 346 345 343 341 337 334 333 337 340 340 340 339 337 334 332 330 326 324 325 326 323 317 312 309 305 306 306 305 305 305 305 305
345 345 344 344 344 345 346 346 346 345 345 345 345 346 347 348 348 349 350 350 351 350 348 348 347 346 347 347 346 346 347 346 346 346 346 346 347 347 347 347 346 347 347 347 348 347 347 347 347 347 347 347 346 343 339 333 328 324 323 326 333 335 334 334 334 332 330 328 325 322 320 317 315 312 309 308 307 307 307 307 309 312 312 308 307
346 345 345 345 345 346 346 346 346 346 345 345 345 345 345 346 347 348 350 349 348 348 347 346 345 344 345 346 346 345 345 344 344 345 346 345 345 345 345 345 346 346 346 345 345 345 345 345 346 346 346 345 340 332 325 322 320 321 322 326 329 330 329 330 329 326 325 324 321 319 315 310 309 310 310 309 308 308 308 308 312 317 317 311 307
345 345 345 345 345 345 345 345 345 345 345 345 344 344 344 344 345 345 346 346 345 345 346 346 345 344 345 346 345 343 342 342 343 343 343 342 342 342 342 342 344 344 343 342 342 343 343 342 342 342 341 335 328 321 320 322 324 326 326 327 327 328 328 327 325 324 324 325 324 322 317 312 311 313 315 315 314 311 310 309 309 311 311 308 306
344 344 344 344 344 344 344 343 343 344 344 344 343 343 344 344 344 344 344 344 344 345 345 346 346 345 345 345 344 343 342 341 340 340 339 340 339 340 340 340 340 340 339 338 337 337 338 337 337 336 332 327 322 320 320 322 324 326 326 327 328 328 328 326 324 322 323 324 324 322 319 317 318 319 320 322 322 319 316 313 309 308 308 307 307
343 343 343 343 343 343 343 343 343 343 343 343 343 343 343 343 344 344 344 344 344 344 345 345 345 343 342 341 341 340 339 338 338 338 338 338 337 337 335 334 333 333 331 330 330 331 332 332 331 328 324 321 320 320 320 321 323 325 325 325 325 325 324 325 324 321 318 319 320 321 321 322 324 323 322 323 324 323 321 315 310 309 309 308 310
340 340 340 341 341 341 341 341 341 341 341 341 342 343 343 343 343 343 343 342 340 340 340 341 339 339 338 338 337 337 336 336 335 335 334 333 331 329 326 324 323 323 320 319 321 323 324 322 321 320 319 320 321 323 325 326 326 326 326 325 325 325 325 326 325 322 319 320 322 323 324 324 324 324 322 322 323 322 320 317 313 311 311 313 314
336 336 336 337 338 337 336 337 338 340 340 340 341 341 341 340 339 338 336 335 333 333 333 334 333 333 332 332 331 331 331 331 329 328 326 324 323 323 321 319 318 315 312 312 314 315 315 316 318 322 324 326 326 327 328 327 326 327 326 325 325 325 325 325 325 323 322 322 322 323 323 322 323 323 322 321 320 319 318 317 316 315 316 316 316
333 332 332 332 332 332 331 332 333 335 336 336 336 336 336 335 334 332 330 329 328 328 327 327 326 326 326 325 324 323 324 323 322 321 320 318 317 317 316 315 314 311 310 313 317 317 317 320 325 327 327 328 328 328 327 326 326 326 325 324 324 323 323 324 324 323 323 324 323 322 322 321 321 321 320 318 317 317 317 317 316 316 316 315 315
332 332 332 331 331 330 329 329 329 329 330 330 330 330 330 329 328 327 327 325 324 324 324 323 322 322 322 321 321 319 318 317 316 314 313 311 310 309 310 310 309 309 313 318 323 325 325 326 328 328 328 328 328 327 326 325 325 325 324 324 324 323 322 323 323 322 322 323 322 321 321 321 320 318 317 315 315 316 317 317 316 316 316 315 315
333 332 331 332 332 331 329 329 328 328 329 329 328 328 328 327 325 324 324 323 323 323 323 323 322 321 319 317 316 314 313 311 310 309 308 308 307 307 307 307 308 313 320 325 328 329 330 329 328 327 327 328 328 326 325 325 324 324 324 324 323 323 322 322 322 320 320 319 319 320 320 320 318 317 316 314 314 315 315 315 315 315 314 313 313
331 331 331 331 330 331 331 331 331 332 332 331 330 331 329 328 327 325 324 324 323 323 322 321 320 318 315 313 311 309 309 309 308 307 307 306 307 307 306 307 312 321 326 329 330 330 331 329 328 327 326 326 326 325 324 325 324 324 324 323 323 323 322 321 320 320 319 319 319 320 320 319 317 315 313 311 311 311 310 311 312 312 312 311 311
328 329 330 330 329 330 330 329 329 329 330 330 331 329 326 326 328 328 327 325 322 319 317 316 314 313 312 310 309 308 308 308 307 307 307 307 308 307 305 310 319 326 329 329 329 330 330 329 327 327 327 326 325 325 324 324 324 323 323 323 323 322 322 321 320 320 320 318 318 317 317 315 313 311 309 309 310 310 310 310 311 311 311 310 309
329 331 332 332 331 327 326 326 326 327 330 331 331 328 325 326 329 328 327 326 323 317 312 310 310 310 309 308 307 308 308 308 307 308 308 308 309 307 307 314 324 328 328 329 330 329 328 328 327 326 326 326 325 325 325 324 323 323 322 322 322 321 321 320 320 319 319 318 317 316 315 313 311 310 310 311 311 311 310 311 311 310 309 308 307
333 332 331 332 330 325 323 322 320 321 326 328 328 328 328 329 329 327 327 327 326 323 318 313 310 309 309 309 308 308 308 308 308 308 308 308 309 308 309 315 321 321 321 325 329 329 328 328 327 326 326 326 325 324 323 322 322 322 322 321 321 321 321 320 320 320 319 318 317 316 314 313 312 312 312 311 310 309 309 310 309 309 308 307 307
329 325 325 328 331 330 327 322 316 317 323 325 324 326 328 328 326 327 328 328 327 326 324 320 313 310 310 311 309 309 309 309 308 308 308 307 307 310 315 321 323 320 319 323 326 327 327 327 326 326 326 325 325 324 323 322 322 321 321 321 321 320 319 319 318 318 316 315 314 314 313 313 313 312 311 310 309 309 309 309 308 307 307 307 307
326 321 320 327 330 331 330 328 324 326 329 328 327 328 329 327 326 327 328 328 326 326 327 325 321 318 318 318 315 312 310 309 310 313 314 313 312 314 319 324 326 326 325 325 325 326 326 326 326 325 325 324 324 323 322 321 321 321 321 320 319 317 316 317 316 316 315 314 314 314 314 313 312 311 310 310 309 308 308 307 306 306 306 306 306
330 326 324 327 328 327 328 328 327 328 329 329 328 329 329 328 328 328 328 329 328 327 327 327 326 325 325 325 323 318 313 310 314 320 323 323 322 321 320 321 324 326 326 327 326 325 325 326 325 325 325 324 324 323 322 322 321 320 319 318 316 315 316 316 316 316 315 314 314 314 313 312 312 311 310 309 308 307 306 306 306 306 305 305 305
330 330 329 328 327 326 327 328 328 328 328 328 328 328 328 328 328 328 328 328 328 327 327 327 327 327 326 326 326 323 318 315 318 324 326 325 324 323 320 319 320 321 321 322 321 320 321 324 323 321 321 322 321 321 321 320 319 318 316 315 314 314 315 315 315 315 315 314 313 313 312 312 311 310 309 307 306 306 305 305 305 305 304 304 304
327 328 329 329 328 327 328 328 328 328 328 327 327 327 327 327 327 327 328 327 327 327 327 326 326 326 326 326 326 326 324 321 320 323 325 325 324 324 322 320 319 318 318 319 319 317 319 321 321 320 320 320 318 317 317 315 315 314 314 315 315 315 315 315 314 314 314 313 312 312 311 310 309 308 307 307 306 305 304 304 304 304 304 304 303
322 323 324 326 327 327 327 327 327 327 328 328 327 326 326 326 326 327 327 327 326 326 326 325 325 325 325 325 323 323 324 323 321 321 322 324 324 324 324 323 322 321 320 321 321 320 320 320 320 319 320 319 317 316 315 314 314 314 314 314 315 315 315 315 314 313 313 312 311 311 310 309 308 307 307 306 305 304 304 304 304 304 303 303 302
318 320 321 322 323 324 325 325 325 325 326 325 324 323 324 325 325 325 326 326 326 326 325 325 325 324 324 324 324 323 323 324 324 323 322 323 324 324 323 323 323 322 321 321 321 320 320 319 319 318 318 318 317 316 315 314 314 314 313 313 313 313 313 312 312 311 311 311 310 310 309 308 308 307 306 305 305 304 304 303 303 303 302 302 302
318 318 317 318 319 319 321 322 323 323 323 323 322 323 324 324 324 325 325 325 325 325 326 325 325 325 324 323 324 324 323 323 323 324 323 323 323 323 322 322 322 322 321 321 321 320 319 319 318 318 317 317 316 315 314 313 312 311 310 310 311 311 311 311 310 311 310 310 310 309 308 307 306 306 305 305 304 303 303 302 302 302 302 302 301
318 316 315 316 316 316 318 319 320 320 320 320 320 321 321 320 320 320 321 322 323 324 324 324 324 324 323 323 323 323 323 322 323 324 324 323 323 322 322 322 322 322 321 320 320 319 319 318 318 318 317 316 315 315 314 312 311 310 309 308 308 309 309 309 309 310 310 310 309 308 306 305 305 304 304 303 303 302 302 302 302 302 301 301 301
318 316 316 317 316 316 317 317 317 318 318 318 318 318 318 318 317 317 318 319 320 319 320 320 320 320 321 322 322 322 322 322 322 322 323 323 323 322 322 322 323 323 322 320 319 319 318 318 317 317 316 315 315 314 313 312 310 310 310 309 309 309 309 309 309 309 309 308 307 306 305 304 303 303 303 302 302 302 302 302 301 301 301 301 301
317 316 317 317 316 316 316 316 316 317 317 317 317 318 317 318 318 318 318 318 318 317 317 318 319 319 319 319 319 319 320 320 320 321 321 322 322 322 322 323 322 322 321 320 319 318 318 317 316 316 315 315 315 314 312 310 309 309 309 309 309 309 309 308 308 308 307 306 305 304 303 302 302 302 302 302 302 301 301 301 301 301 301 301 301
316 316 317 316 316 315 316 316 316 316 316 316 316 316 316 316 316 317 317 317 317 317 317 317 317 318 317 317 317 318 318 319 319 319 320 320 321 321 322 322 321 320 320 319 318 317 317 316 315 315 315 315 314 312 311 309 309 309 309 308 308 308 308 308 308 307 306 306 305 303 302 301 302 302 301 301 301 301 300 300 300 300 300 300 301
315 316 316 315 315 316 316 316 316 316 316 316 316 316 316 316 316 316 316 316 316 316 316 316 316 316 316 316 316 317 317 317 318 318 319 319 320 320 320 320 320 320 319 318 317 317 316 316 315 315 314 313 311 310 310 310 309 309 309 308 308 308 307 307 306 306 306 305 304 302 300 301 301 301 301 301 300 300 300 300 300 300 300 300 301
314 314 314 314 315 315 315 315 316 316 315 315 315 315 315 315 315 315 315 315 315 315 315 315 315 315 315 315 315 316 316 317 317 318 318 319 319 319 320 320 320 320 319 318 318 316 316 315 315 314 313 312 311 310 309 309 309 309 308 308 307 307 307 306 306 305 304 302 300 298 299 300 301 301 300 300 300 300 300 300 300 300 300 301 301
Wind_Speed
23 23 22 21 20 20 21 21 20 19 17 16 16 16 15 15 14 14 13 13 14 14 14 13 14 13 12 12 12 11 10 9 10 11 9 8 9 9 10 11 11 9 9 9 9 9 10 10 9 10 10 9 8 8 6 7 8 8 8 8 7 9 9 9 11 11 9 8 8 9 9 7 6 6 6 4 3 3 3 6 10 11 11 12 11
23 23 22 21 20 19 19 20 20 19 17 16 16 16 15 16 15 15 14 14 14 14 14 14 14 13 12 12 12 11 11 11 12 12 10 9 10 10 10 11 11 10 10 10 10 9 9 10 10 10 9 8 9 8 6 7 8 5 5 7 6 8 9 9 11 11 10 10 10 10 9 8 9 10 9 6 5 5 4 5 10 13 12 12 10
23 23 22 21 20 19 19 19 19 18 17 17 16 16 15 15 15 15 15 15 15 15 14 14 14 13 13 13 12 12 13 14 14 13 12 12 12 11 10 10 12 13 11 11 11 11 10 10 10 9 8 8 9 9 8 9 8 5 4 5 5 7 7 8 8 8 10 12 14 12 10 9 9 9 9 8 7 5 3 3 8 12 11 10 10
23 23 23 21 20 19 19 19 18 18 18 17 16 16 15 15 16 16 15 15 16 17 16 15 15 15 16 15 14 14 15 15 14 13 13 13 13 13 12 12 13 15 13 11 11 11 10 11 10 10 10 11 10 10 10 10 9 9 8 6 5 6 8 8 7 7 10 14 15 13 10 10 10 10 9 9 9 6 4 5 6 9 9 8 10
23 23 23 21 20 20 19 19 18 18 18 17 16 16 16 15 16 17 17 16 15 17 19 19 18 18 18 17 16 16 16 16 15 14 12 12 13 13 13 13 14 15 13 12 11 11 12 13 11 11 12 13 12 11 11 10 9 10 9 8 7 8 10 12 11 9 9 10 12 11 9 9 10 11 10 9 9 8 8 7 6 6 8 9 12
24 23 23 22 21 21 19 19 18 18 18 18 17 16 16 16 16 18 19 18 16 16 18 20 20 20 19 17 16 17 17 16 16 15 13 13 13 14 14 14 14 14 13 13 13 13 14 13 12 13 14 14 14 12 11 9 9 9 9 7 7 8 10 12 12 10 7 7 8 8 8 8 9 11 11 10 9 9 10 9 6 6 8 10 12
26 25 24 22 22 21 20 19 19 18 18 18 17 17 17 17 16 17 18 19 19 18 17 18 20 19 19 18 17 16 16 15 16 16 15 15 15 14 15 16 16 15 14 14 14 14 14 13 13 15 15 14 13 11 10 10 9 8 7 6 5 6 8 9 9 8 6 6 7 8 8 8 8 10 11 11 10 10 11 9 6 5 6 9 12
25 25 25 24 23 22 21 19 18 18 18 18 18 17 17 17 17 17 17 17 19 19 18 18 19 19 19 18 17 15 15 16 17 17 17 16 15 14 15 17 17 16 15 15 14 14 15 15 14 14 14 12 10 9 9 10 9 8 7 6 7 8 8 7 6 7 7 6 7 7 6 8 9 9 10 10 10 9 10 8 6 5 6 7 10
26 26 26 24 22 23 22 19 18 19 20 20 20 19 17 17 17 17 18 18 18 18 19 19 18 19 18 17 17 16 16 16 17 17 17 16 15 14 14 17 18 17 15 15 14 14 16 16 15 15 13 10 9 9 10 10 10 10 9 9 9 9 9 8 7 9 9 8 7 6 5 7 8 9 9 9 9 8 7 8 8 7 7 6 8
30 28 26 23 21 21 21 21 20 22 23 23 23 23 21 19 19 19 19 19 19 19 20 20 19 19 18 17 17 16 15 17 18 18 16 16 15 15 16 17 18 18 17 16 14 14 15 14 15 15 11 9 9 10 10 11 11 12 12 10 9 8 8 9 8 9 9 8 7 6 6 7 9 10 9 7 7 7 7 8 9 8 8 8 9
29 26 24 22 21 21 22 23 22 22 23 23 23 24 24 23 23 22 21 22 22 19 18 17 17 18 18 17 17 17 17 19 19 18 17 16 16 17 17 16 17 18 17 16 15 14 13 11 12 13 11 8 7 8 9 10 11 11 11 10 10 9 8 8 7 8 9 9 8 7 8 9 11 12 10 8 8 8 9 10 10 10 8 8 9
24 24 23 22 22 22 22 23 22 23 24 24 23 23 24 24 25 24 21 22 22 19 17 16 16 17 17 16 16 18 19 18 17 16 17 17 17 17 16 15 15 16 16 16 16 14 12 10 10 12 11 8 6 7 8 9 8 9 9 10 11 11 9 9 8 9 10 10 11 11 11 11 11 10 10 9 9 10 10 10 10 10 9 8 10
23 23 23 23 22 23 22 21 21 23 24 24 22 21 21 23 24 23 20 19 19 18 18 19 18 17 17 16 16 18 19 18 16 15 15 15 17 17 16 15 16 16 14 15 16 14 12 12 11 10 11 10 10 10 12 11 10 9 10 10 11 12 11 10 10 11 12 13 14 14 14 12 11 11 11 12 12 12 12 12 11 12 12 11 12
23 21 22 22 21 22 22 21 21 22 22 23 23 22 22 22 22 23 21 19 19 18 18 19 20 18 17 17 16 16 18 19 18 17 15 13 14 16 16 16 16 16 15 15 16 15 13 12 11 10 11 13 12 12 13 13 11 10 10 10 11 12 12 12 12 13 14 14 14 15 15 15 14 14 14 14 16 16 16 14 12 13 12 9 9
21 19 20 21 21 21 22 22 22 22 21 22 23 23 22 21 21 23 22 21 20 19 17 18 19 18 17 17 16 15 16 17 18 17 16 13 12 14 15 16 15 15 15 16 16 16 13 10 10 12 14 15 14 13 12 12 11 10 10 11 12 13 13 13 14 14 14 15 15 16 17 16 15 15 16 17 18 18 16 13 11 11 9 6 7
20 20 21 22 21 21 22 22 22 21 21 21 22 22 21 19 20 20 20 21 21 20 18 16 16 16 16 16 16 17 17 17 17 16 16 16 15 14 13 13 14 14 15 16 17 16 14 11 11 12 14 14 13 13 12 11 11 10 10 12 13 14 14 14 14 14 15 17 17 17 17 17 17 17 18 19 18 16 14 12 10 11 9 6 5
20 21 23 22 20 19 20 20 20 20 20 21 22 23 21 20 19 19 18 18 19 19 19 17 16 16 15 15 16 17 17 18 18 17 16 16 16 15 13 12 12 13 15 16 16 16 15 14 12 11 12 11 10 10 11 11 11 10 10 12 13 14 15 16 15 16 16 16 16 16 17 17 16 16 16 15 14 12 11 11 11 11 10 5 4
19 20 21 20 18 18 18 19 20 20 21 21 21 21 21 20 20 19 17 15 15 16 17 17 16 16 15 15 15 16 17 18 20 19 17 16 15 15 14 13 12 12 14 15 15 15 15 15 14 11 11 10 10 10 10 11 11 11 11 12 12 12 13 15 15 16 16 15 15 15 15 13 12 11 10 9 9 9 8 9 10 11 10 9 7
17 18 18 16 16 16 17 18 19 20 20 21 20 19 18 19 19 20 19 17 14 15 16 17 17 17 16 17 18 17 18 19 20 19 18 17 16 15 15 13 11 11 12 13 14 15 15 15 14 12 11 12 12 11 11 12 12 13 13 13 11 10 11 14 15 15 16 15 13 11 9 8 7 6 6 7 7 8 8 9 10 10 10 10 9
11 13 13 13 14 15 16 17 17 17 17 17 18 18 17 17 19 21 21 20 17 16 16 17 18 17 17 18 19 20 19 18 18 17 16 16 16 15 14 12 11 11 12 13 14 15 15 15 13 12 12 13 14 13 12 12 13 14 14 12 11 11 13 14 14 14 13 11 9 5 3 4 5 5 6 7 8 8 8 8 9 8 8 8 8
8 9 11 12 13 15 17 17 17 16 15 15 16 17 16 17 19 21 22 21 19 18 16 16 17 17 18 19 19 19 18 16 15 15 15 14 14 14 13 12 12 13 14 14 15 16 18 17 15 14 14 15 15 14 14 13 13 13 14 13 13 15 16 15 14 13 11 8 4 2 1 3 4 6 7 8 8 7 6 5 5 5 5 5 6
8 8 10 11 12 13 15 16 16 16 15 15 16 16 17 18 19 20 20 19 19 19 19 19 20 19 19 19 18 17 16 15 14 15 15 14 14 14 14 14 14 14 16 18 18 19 21 20 18 17 17 16 16 16 15 14 13 12 11 11 12 14 15 14 12 8 4 3 2 1 1 1 1 5 8 9 9 8 6 5 4 4 3 2 3
8 8 8 9 10 11 11 12 13 13 13 14 14 15 16 17 17 18 18 18 19 20 20 21 20 18 17 16 15 15 15 15 15 15 15 15 15 15 15 14 14 15 17 20 21 23 23 21 19 18 18 17 17 16 14 12 10 9 8 7 7 9 10 9 8 6 4 2 2 2 2 1 4 7 8 8 7 6 5 4 4 3 2 2 1
8 8 7 8 8 8 7 7 8 9 10 11 12 13 15 15 14 15 18 19 18 18 18 17 15 13 12 12 12 12 12 13 14 13 15 16 16 15 14 13 13 14 16 18 21 21 19 16 15 17 17 17 15 12 8 5 4 3 3 3 4 5 5 5 6 5 4 3 3 4 4 3 4 5 5 5 4 4 5 5 5 4 3 3 3
8 8 8 7 7 7 7 6 6 6 7 9 10 11 13 13 12 13 15 16 15 13 13 11 9 9 9 8 8 9 10 11 12 13 14 15 15 14 13 13 14 15 15 15 14 13 12 11 13 16 17 15 10 5 4 5 5 5 5 4 4 3 3 4 4 3 1 2 5 5 5 4 3 4 5 4 3 4 6 7 6 5 5 7 7
9 10 9 9 9 8 7 7 7 8 8 8 8 9 11 12 11 10 9 8 9 10 10 9 8 9 9 8 9 11 12 12 12 11 12 12 11 10 10 11 13 15 15 12 9 8 9 10 11 12 12 9 7 9 9 8 8 8 8 7 5 3 2 1 1 1 1 2 4 5 6 6 5 5 8 7 4 5 7 8 7 6 7 9 8
9 9 8 7 7 6 5 5 6 6 6 8 9 10 11 10 8 9 9 8 8 9 9 9 9 10 10 11 12 12 11 10 9 8 9 9 8 8 8 8 10 11 11 9 6 6 6 6 6 7 6 5 7 8 9 9 9 9 8 8 6 3 1 2 3 1 1 2 2 3 4 6 6 7 10 10 8 10 12 11 10 9 9 9 6
7 7 6 6 5 5 4 4 4 4 6 8 8 8 8 7 6 7 8 7 8 9 10 10 11 11 10 9 9 8 6 5 5 5 5 5 5 5 5 5 5 5 4 2 2 4 4 4 4 4 5 5 6 8 9 8 8 7 5 4 2 1 1 1 3 3 1 3 2 2 3 6 6 5 6 6 7 12 15 15 14 13 11 9 7
13 12 11 9 8 8 8 8 7 6 7 8 7 6 5 4 4 5 5 4 4 6 8 8 6 5 4 3 2 2 1 1 1 1 1 1 2 1 1 2 3 4 4 5 5 5 5 6 7 9 11 11 12 13 11 8 7 6 4 4 4 4 3 2 3 5 3 2 3 4 3 3 4 3 1 1 5 10 12 14 15 15 13 11 9
18 17 16 15 15 14 14 13 11 9 7 5 5 5 5 5 4 3 3 4 4 3 2 1 2 2 2 3 3 2 2 2 2 2 2 2 3 4 5 5 5 6 7 8 9 9 10 11 12 13 13 13 14 12 7 6 7 4 2 2 3 3 3 2 1 4 6 4 4 3 2 1 2 3 3 4 7 9 9 11 12 11 10 9 9
17 17 17 17 17 16 16 15 14 11 10 8 7 7 7 8 7 7 7 8 7 6 5 5 4 4 5 5 4 3 3 3 3 2 2 2 3 4 5 5 6 8 11 12 12 12 12 13 14 12 11 11 12 8 6 8 9 4 2 3 4 5 5 6 5 2 1 2 3 2 4 3 3 5 6 6 8 8 8 10 10 10 10 10 10
16 16 15 15 15 15 16 16 14 13 12 11 9 9 9 8 8 8 8 8 8 8 7 7 6 5 5 4 3 1 1 1 1 2 3 3 4 5 6 7 9 11 13 13 13 11 10 9 9 7 6 7 8 9 8 8 6 3 3 4 4 6 7 8 7 5 6 5 2 2 5 5 6 8 8 8 8 7 7 9 10 9 10 10 9
13 13 13 14 13 13 14 14 14 13 12 11 10 9 7 6 7 7 7 6 6 6 5 4 4 3 2 1 0 1 1 1 2 2 3 3 3 4 7 9 11 13 13 13 13 11 7 3 2 2 2 4 9 11 8 5 2 3 5 5 6 5 5 7 8 8 7 4 1 4 8 8 8 9 8 7 7 7 7 8 8 9 11 12 12
11 12 12 12 11 11 11 10 10 9 8 9 9 8 5 4 4 5 5 5 4 3 3 3 2 2 2 1 0 1 1 2 3 4 4 5 5 6 8 11 12 13 13 12 11 9 7 6 7 6 5 5 9 10 7 6 6 8 7 6 6 6 6 8 7 7 6 3 2 5 10 9 8 9 10 10 10 11 10 10 10 11 13 14 14
11 11 10 10 10 9 8 8 7 8 7 7 6 4 2 3 4 3 4 4 4 4 3 4 4 3 1 1 1 2 2 3 4 4 4 5 5 6 9 12 13 13 12 11 9 6 4 5 10 11 8 6 9 11 9 8 9 9 8 7 7 8 8 6 4 6 7 6 6 9 11 11 12 13 13 12 11 11 11 10 10 11 12 14 15
10 10 10 8 7 5 5 6 6 8 9 7 3 2 5 6 4 2 2 3 5 6 5 3 3 3 1 0 0 0 1 1 2 2 2 2 3 5 8 12 14 13 10 9 8 5 2 3 7 10 9 8 9 11 10 7 5 6 8 8 9 10 9 7 7 8 8 7 7 10 13 15 15 13 10 8 9 10 11 10 10 12 14 15 15
8 8 8 7 6 6 6 6 4 5 7 6 5 3 4 4 1 1 2 2 4 7 7 5 4 4 2 2 2 2 1 1 2 1 1 1 2 4 7 9 9 9 9 9 9 7 4 3 5 7 8 7 6 7 7 5 4 6 9 10 11 11 10 10 10 11 11 12 13 15 15 14 12 10 9 10 11 11 10 10 12 14 13 13 12
5 4 5 6 6 6 8 7 6 6 6 5 5 4 3 2 2 2 0 2 3 5 8 8 7 5 4 3 3 2 2 1 1 0 1 2 4 5 6 5 4 4 4 6 9 8 5 5 7 8 8 7 5 5 7 9 9 10 11 12 12 13 13 14 14 14 14 14 12 11 10 9 9 11 13 12 10 9 10 13 15 14 12 10 9
5 4 6 7 7 6 5 7 7 7 6 4 3 3 2 0 0 1 1 3 3 3 6 8 8 6 5 5 5 4 4 2 1 2 2 1 2 3 4 4 3 3 3 6 8 8 7 8 10 10 10 10 10 10 11 13 12 12 12 12 12 11 9 9 10 10 9 7 5 6 7 8 9 11 11 10 10 13 16 17 16 12 10 9 10
5 5 6 4 4 6 5 5 5 4 2 1 2 2 2 2 3 2 1 4 4 4 4 6 6 6 8 9 8 7 6 3 2 3 4 2 2 4 4 4 7 9 10 12 12 11 11 13 14 13 13 13 13 14 15 14 12 12 12 12 11 7 4 4 5 6 6 6 6 7 7 8 9 11 13 15 17 18 17 14 11 9 9 10 11
5 5 4 4 3 3 4 3 3 1 1 1 0 2 3 3 3 3 3 4 5 5 5 5 5 6 9 12 11 9 8 6 1 1 4 6 7 8 8 7 8 10 12 13 13 11 11 13 13 12 12 13 14 15 16 16 14 13 11 9 7 4 2 3 5 6 8 8 7 6 7 11 15 17 17 17 16 15 14 12 10 9 10 10 11
5 6 4 4 3 2 2 5 4 3 3 4 4 4 4 2 2 3 4 5 5 5 6 7 8 9 11 12 12 11 11 9 5 5 7 9 10 10 10 8 9 10 10 10 9 8 8 9 8 6 6 9 11 12 11 11 11 8 5 3 3 3 2 3 5 7 8 9 9 9 10 13 15 14 11 11 13 14 13 11 9 9 10 11 11
3 5 4 4 3 3 4 5 5 4 4 5 5 7 8 6 3 3 5 6 6 7 7 7 9 12 12 12 12 12 11 11 10 8 9 9 11 12 10 9 9 10 8 8 8 7 7 6 4 4 6 8 8 7 7 7 7 6 6 6 6 5 6 8 9 9 8 7 7 8 9 8 8 8 8 11 13 12 10 8 8 9 10 11 12
4 5 3 3 3 3 3 4 4 4 4 6 7 6 6 8 8 6 6 7 8 9 9 9 9 11 12 11 11 11 10 11 12 11 10 10 12 13 13 13 12 11 10 9 9 9 7 4 4 6 8 8 8 8 9 9 9 9 10 9 7 6 8 9 8 9 11 12 12 11 10 8 8 8 8 9 9 8 7 8 8 10 11 12 12
4 4 3 3 3 3 3 3 3 2 3 5 6 5 5 6 7 7 7 7 8 9 9 9 9 10 11 10 9 9 11 12 12 12 12 13 13 14 15 16 15 15 15 12 11 10 9 7 9 11 9 8 9 11 11 12 12 12 12 10 8 8 11 11 9 10 13 15 15 12 9 8 7 7 7 9 10 10 9 9 9 10 11 12 13
5 4 3 4 4 3 4 5 4 3 4 5 5 5 6 6 6 6 6 6 6 6 7 8 8 8 10 11 10 10 11 11 11 11 12 12 12 14 15 17 17 18 17 16 16 16 13 10 11 12 10 7 9 11 11 11 11 10 9 9 10 12 15 14 13 15 18 17 15 13 10 8 7 7 7 8 9 9 9 9 10 11 11 12 13
5 4 4 4 4 3 4 5 4 4 5 6 6 6 6 6 6 6 6 7 7 6 7 8 9 8 8 10 11 12 13 13 13 13 12 12 12 14 16 18 20 20 20 17 16 16 14 12 10 10 9 9 10 11 9 7 7 8 8 9 11 12 14 14 14 16 17 16 15 15 13 11 9 8 7 7 8 8 9 10 10 10 11 12 13
4 4 4 4 4 4 4 4 4 4 5 5 5 6 6 6 6 7 7 8 8 7 7 7 7 7 8 8 9 10 11 11 12 12 13 14 14 15 17 19 19 18 18 16 12 10 11 12 11 12 13 14 12 11 9 7 8 10 12 12 12 13 14 15 16 17 17 16 16 16 14 11 9 8 7 7 8 9 10 10 10 11 12 13 14
4 4 5 5 5 5 5 5 5 5 5 6 5 5 6 6 6 6 7 7 7 8 8 8 8 8 9 10 9 9 9 10 10 10 11 12 14 16 18 18 17 15 14 14 12 11 12 12 13 14 16 14 10 9 10 10 11 11 11 12 13 16 17 18 19 20 20 19 21 20 14 8 6 7 8 9 10 10 10 11 12 13 13 14 15
4 4 5 5 5 5 5 5 5 5 5 5 5 5 5 5 5 6 6 6 6 7 7 8 8 9 9 8 9 9 10 10 11 11 11 11 13 14 14 14 12 10 10 11 13 15 17 17 16 16 15 10 7 7 9 10 10 10 11 13 15 17 19 19 20 21 21 22 23 20 12 6 5 7 8 8 10 11 11 12 14 14 14 15 16
4 4 5 5 5 5 5 5 5 5 5 5 5 5 5 5 6 6 6 6 6 7 7 7 8 9 8 7 8 8 6 6 7 9 9 10 11 11 9 8 8 9 11 12 13 15 17 18 16 15 13 10 9 9 9 9 11 13 14 16 17 18 20 22 23 23 22 20 17 12 8 5 3 5 7 8 10 11 11 11 13 13 14 16 17
Wind_Direction
196 198 197 197 200 204 205 205 205 201 198 202 204 205 206 205 206 208 208 211 213 213 209 207 217 223 219 215 214 220 229 226 228 239 244 238 232 228 230 241 249 255 262 258 252 250 243 239 244 254 261 258 256 267 272 275 280 278 268 255 254 276 285 292 294 296 303 312 325 325 314 301 284 276 286 283 242 219 238 296 296 286 294 304 304
196 197 196 198 200 202 204 207 207 203 200 204 206 206 208 208 208 209 210 212 213 216 215 210 213 220 222 220 217 223 232 227 224 236 249 250 248 242 240 256 267 264 262 263 261 262 256 249 254 262 270 275 273 270 269 273 280 289 266 250 269 287 285 292 298 297 301 309 319 326 326 318 302 290 288 282 269 257 244 284 293 290 301 307 299
197 199 198 198 200 201 203 206 207 204 203 206 208 208 210 210 210 210 212 215 212 213 220 221 217 217 222 225 222 223 229 229 227 230 234 241 248 248 241 251 267 268 265 267 268 267 264 262 265 272 274 270 270 272 268 264 265 261 242 255 294 300 286 290 303 307 309 309 311 318 325 326 321 312 300 287 280 278 265 292 299 300 311 310 297
197 202 201 199 201 202 203 205 206 206 205 208 209 210 211 213 213 212 210 217 220 216 215 219 218 218 222 224 223 225 229 232 235 234 232 238 247 251 248 242 250 260 263 265 268 269 269 268 268 270 271 267 262 260 260 264 267 266 262 260 273 292 291 287 289 301 308 308 307 311 321 328 327 322 312 295 284 281 281 301 315 310 308 300 291
197 204 203 199 200 203 204 205 206 208 208 209 211 212 213 215 216 216 210 212 223 224 220 218 218 220 223 223 223 227 229 232 238 238 236 244 251 255 259 258 257 260 260 260 262 262 259 260 263 263 261 263 265 260 258 268 277 278 276 270 267 278 287 292 295 295 293 295 299 304 314 324 321 317 316 306 290 280 278 292 313 306 290 282 283
197 204 205 202 201 203 206 207 206 209 210 210 213 214 215 217 218 220 216 212 215 225 230 229 226 225 227 227 227 230 233 237 242 242 237 240 249 255 258 262 264 265 264 264 263 264 263 259 261 262 259 262 268 267 267 276 283 281 281 284 287 288 290 296 301 296 286 279 281 289 298 306 309 309 310 308 297 286 280 285 297 290 282 284 288
197 203 205 204 204 203 205 208 208 209 211 212 213 215 217 218 218 220 222 220 218 222 231 234 234 231 229 231 233 235 241 245 246 248 244 241 244 249 254 257 259 260 263 264 262 265 267 261 255 256 261 265 267 270 276 281 282 283 291 301 301 299 300 300 296 290 285 279 283 290 296 299 307 310 308 307 302 297 293 293 295 282 282 295 297
199 206 206 204 206 205 204 208 211 211 214 216 215 217 220 221 220 220 224 226 224 223 226 231 237 237 233 234 234 233 238 244 248 251 249 246 245 246 252 255 256 257 259 259 259 260 263 262 258 256 260 263 265 275 282 275 270 275 287 295 291 288 291 292 286 275 267 274 288 295 305 310 312 309 305 302 299 298 298 299 300 289 284 298 297
196 202 204 200 203 206 205 208 212 211 213 216 215 217 222 223 225 226 228 232 233 231 229 230 234 238 237 235 232 230 234 239 248 252 249 248 246 242 246 253 257 261 260 259 258 259 262 265 265 264 265 265 262 268 272 267 266 272 277 281 283 280 275 277 279 272 267 274 284 291 310 318 313 304 297 293 293 297 300 300 301 298 294 297 293
198 201 206 204 205 207 206 208 213 213 214 215 214 214 216 219 220 222 226 232 235 235 230 228 233 237 235 233 231 230 231 232 238 246 249 252 251 247 247 253 258 261 262 265 263 257 261 271 274 272 274 274 267 265 269 269 268 271 274 275 274 270 266 269 273 270 267 269 276 286 303 306 303 300 294 289 295 304 307 302 299 303 305 302 295
203 204 208 211 212 211 209 210 214 218 219 220 220 217 217 219 219 220 222 222 223 228 230 231 237 238 235 233 228 226 229 232 238 245 250 255 258 257 256 259 261 257 256 263 265 263 269 283 292 293 290 285 276 267 265 266 265 269 275 278 275 267 258 253 254 258 260 264 273 286 294 295 297 297 292 289 295 301 300 299 300 300 297 296 293
209 208 205 208 213 217 217 216 218 222 222 223 225 224 224 225 226 229 234 232 229 235 243 246 247 244 243 239 226 225 235 240 241 245 251 257 258 258 260 262 262 260 257 259 263 268 273 278 292 298 289 274 271 274 269 265 267 274 283 285 280 273 266 259 259 266 271 277 283 286 288 290 288 281 277 281 290 297 297 299 301 294 285 282 283
217 214 207 207 212 217 219 219 221 224 225 226 226 225 227 230 230 233 242 245 241 241 242 243 242 240 245 245 235 236 247 250 248 249 255 260 257 257 262 263 262 262 258 256 260 266 271 276 281 281 273 270 273 273 269 265 267 276 287 288 281 277 276 272 270 274 278 281 282 280 281 285 284 278 276 280 290 299 297 292 286 283 287 287 283
210 207 207 208 210 212 216 219 223 225 227 229 229 229 233 237 237 237 240 243 244 244 240 240 241 240 242 245 243 245 253 255 253 254 260 264 259 256 258 261 263 262 255 254 260 261 266 278 278 266 268 276 274 268 266 266 268 276 282 280 278 276 273 269 270 274 274 273 272 273 277 282 286 286 283 285 293 300 300 295 289 290 296 294 286
200 197 201 206 208 211 214 219 223 223 226 230 233 235 238 241 243 243 242 241 245 249 246 242 242 241 240 242 245 249 256 258 255 254 261 269 266 259 257 259 262 262 256 254 258 259 260 270 270 261 261 265 266 267 268 264 263 268 272 273 275 275 270 267 271 272 271 271 272 274 279 284 287 285 282 285 293 298 299 297 292 290 289 281 282
194 195 202 208 211 211 213 218 223 224 227 232 236 237 238 241 244 244 243 244 246 250 249 243 238 236 236 241 249 253 257 259 259 260 265 268 265 263 263 262 260 258 254 251 254 259 261 262 264 261 259 261 263 261 258 256 256 258 262 269 275 275 271 269 271 270 269 271 274 276 279 282 283 282 282 286 291 292 292 287 275 265 258 255 275
187 192 199 205 210 211 214 218 222 225 229 234 238 239 238 239 240 239 242 246 246 247 247 243 236 234 236 244 254 258 258 260 262 264 266 268 267 264 264 263 259 254 252 249 250 254 256 257 262 264 261 261 257 246 241 246 252 254 260 268 270 271 273 275 276 276 273 271 273 278 282 282 282 282 282 284 285 283 279 274 263 250 239 233 251
181 190 196 201 207 212 216 219 220 223 227 231 234 237 237 236 234 233 237 240 242 246 248 245 239 236 239 245 253 258 260 261 261 261 264 267 267 264 262 260 256 253 252 250 248 249 250 253 258 260 259 256 251 245 243 246 255 265 271 273 271 268 271 274 276 276 275 277 283 289 291 289 287 285 283 281 279 279 277 271 261 251 241 232 232
169 179 187 195 205 213 219 222 223 224 226 228 232 234 235 234 230 228 228 226 228 238 244 244 242 241 242 246 252 255 257 259 262 263 264 262 261 264 262 256 251 250 253 255 255 251 246 245 248 253 256 255 251 248 249 256 267 274 274 275 275 266 260 262 266 270 275 285 295 300 297 290 284 280 280 282 284 286 284 276 269 265 257 240 228
189 191 196 206 216 222 225 225 224 224 225 228 230 230 231 229 227 226 226 223 222 227 235 241 244 242 239 240 244 248 253 260 264 267 267 263 260 259 256 249 244 244 246 247 245 246 244 240 241 250 259 260 255 251 254 263 269 268 265 264 260 253 250 250 254 264 275 288 300 304 296 297 299 294 289 291 295 293 286 280 275 271 262 243 220
203 201 205 214 223 226 228 228 227 229 231 231 229 229 228 225 223 223 223 223 223 223 226 229 231 228 227 232 238 244 251 259 261 263 267 267 264 258 250 244 242 243 245 240 233 240 249 248 245 251 259 261 259 259 266 274 272 266 263 257 248 247 250 248 249 258 271 280 281 277 308 336 332 318 308 310 320 322 314 310 304 290 277 251 219
178 188 199 209 216 221 225 229 232 233 234 233 231 232 230 225 222 222 221 220 221 220 218 221 224 223 227 235 242 247 252 256 256 259 263 265 265 260 253 248 244 239 237 236 235 243 251 250 247 250 256 260 263 267 275 281 280 273 267 259 247 242 246 247 245 245 257 262 233 257 7 29 308 300 312 324 338 347 351 355 352 340 337 319 244
166 175 194 206 213 219 224 229 233 235 236 236 236 238 238 231 223 217 212 208 208 211 213 218 224 226 229 238 246 251 254 254 252 255 260 262 261 257 251 249 248 244 241 241 242 244 245 246 246 249 252 259 266 272 277 278 275 267 261 256 240 232 235 236 222 196 175 193 234 303 329 278 262 290 311 324 337 355 9 19 26 23 13 6 300
157 166 184 195 200 210 217 224 232 236 241 244 244 246 246 242 229 212 200 197 200 206 210 211 216 224 232 241 251 258 261 259 255 255 259 263 263 261 257 253 253 256 259 256 250 245 243 244 250 255 257 260 263 266 266 258 243 224 215 200 197 204 203 189 180 173 175 209 273 302 303 292 291 309 331 341 353 19 30 31 41 40 13 4 5
150 156 165 171 177 187 192 195 203 210 224 239 244 245 246 245 235 212 194 191 197 206 210 209 217 238 249 253 260 266 269 267 265 263 262 265 268 270 271 268 263 262 264 264 262 262 264 265 262 259 258 255 246 214 159 142 134 127 124 128 145 161 155 149 151 149 197 295 315 317 322 349 11 9 5 6 34 53 40 27 29 20 347 346 349
157 158 162 165 169 175 184 192 196 198 210 227 236 242 246 247 242 229 217 208 206 214 226 236 242 248 253 255 260 265 265 262 261 262 263 269 275 279 279 277 272 267 264 266 270 274 272 268 258 251 247 230 179 140 125 120 118 115 110 104 98 83 77 138 158 110 69 1 342 330 333 357 29 31 18 16 23 28 21 14 6 347 333 337 341
166 167 166 162 161 167 183 193 191 197 222 233 232 233 238 241 238 235 238 237 230 231 244 256 254 249 249 251 254 259 261 261 262 267 272 277 282 286 285 278 274 272 269 269 267 256 248 240 232 228 217 186 155 137 129 128 127 123 118 116 121 139 232 272 294 312 145 174 250 292 336 9 27 25 20 15 352 335 340 346 347 345 342 341 342
141 137 129 131 149 164 173 165 157 179 223 231 225 220 223 226 228 230 234 241 246 250 254 256 254 253 255 258 262 264 266 268 268 272 280 285 284 283 284 283 282 281 277 262 232 223 208 191 187 169 140 134 131 120 116 117 117 113 100 91 110 223 257 319 327 329 229 197 234 310 21 37 28 17 25 16 327 311 317 327 335 339 344 352 357
96 94 95 103 112 110 102 102 116 152 195 208 204 196 195 201 211 225 231 233 237 242 247 249 248 248 253 261 267 260 247 265 284 281 284 285 268 225 151 108 98 101 103 103 114 131 133 132 129 118 112 112 109 103 99 96 98 102 82 48 36 41 60 48 337 349 11 75 70 41 32 32 3 339 69 40 293 295 308 318 326 336 346 354 357
90 90 92 95 96 97 96 97 107 127 149 161 160 156 151 142 139 144 135 114 114 138 180 180 152 130 105 92 93 100 111 116 110 108 121 136 140 137 131 124 122 125 122 118 119 120 118 118 117 113 112 116 113 108 111 122 127 142 175 157 145 124 112 171 256 18 20 28 38 9 296 255 310 284 246 258 281 294 308 316 326 339 342 340 339
88 87 87 88 90 92 92 91 93 99 104 104 106 110 112 113 116 111 102 98 99 101 99 99 100 101 99 98 96 96 112 130 138 148 174 186 178 170 161 152 148 142 135 130 126 120 117 119 121 121 122 124 125 133 155 149 146 165 191 175 196 214 213 213 204 146 87 81 58 346 278 249 269 275 271 286 302 312 319 321 327 332 328 329 334
83 82 81 80 80 82 86 89 87 85 86 87 88 94 99 103 106 105 101 100 98 96 95 94 91 94 102 108 109 123 173 197 210 221 225 220 204 189 177 166 158 151 144 139 130 121 118 117 121 134 147 148 155 172 173 158 158 171 152 160 210 227 227 239 250 248 231 206 166 333 304 278 274 285 295 307 315 321 323 325 330 329 324 326 321
85 86 85 82 77 72 77 81 76 70 67 64 65 77 88 92 94 96 94 92 88 84 82 85 88 90 94 107 212 254 242 218 200 187 180 178 172 162 158 157 153 147 144 142 139 144 158 163 138 159 199 202 197 192 182 176 192 168 165 201 231 230 238 264 273 267 256 235 212 304 291 279 282 298 309 311 312 314 316 318 317 309 304 303 300
89 92 94 94 91 86 85 85 81 78 72 61 60 71 83 89 92 85 69 57 52 44 27 10 360 350 331 313 232 143 121 136 142 138 131 130 136 141 145 149 150 148 146 148 151 160 179 198 205 218 228 210 197 191 185 190 189 176 186 231 257 267 285 298 291 270 260 238 203 260 271 277 291 305 309 310 312 313 312 311 308 301 299 300 300
79 84 86 88 92 100 111 116 119 122 115 94 88 98 84 74 85 75 43 19 349 338 335 324 320 323 331 360 107 115 118 129 131 124 118 117 119 130 141 149 156 157 156 162 171 172 169 193 208 218 222 202 186 186 190 199 203 200 208 229 246 260 277 291 280 259 259 249 242 262 280 291 298 306 314 318 318 318 322 321 309 298 296 299 302
71 75 79 80 77 86 103 110 120 129 124 112 111 84 44 51 64 46 358 336 326 332 338 335 328 329 346 352 302 150 146 167 160 157 167 135 116 133 152 159 166 174 176 182 191 195 200 214 209 210 213 204 192 193 201 214 233 234 230 233 243 255 264 261 249 259 277 280 276 289 301 304 305 312 320 316 308 313 318 310 295 295 302 308 315
96 89 88 87 70 51 58 68 91 122 122 118 126 114 70 68 100 338 337 310 308 326 339 350 340 315 311 326 311 293 274 253 240 234 245 213 158 155 161 166 180 197 201 201 205 208 225 247 223 212 219 221 211 214 221 223 227 231 231 237 247 256 260 258 255 263 278 285 288 294 298 302 307 308 303 302 308 314 310 298 298 309 318 322 329
104 96 90 96 85 50 32 35 54 72 77 82 100 108 107 159 172 135 108 256 274 303 318 335 343 328 319 337 332 310 315 321 297 13 77 156 165 163 161 169 202 224 215 214 211 201 208 249 246 230 229 228 217 213 212 208 218 234 239 243 253 260 263 264 265 270 280 288 292 290 286 288 293 295 299 310 318 313 303 304 311 319 324 325 327
14 48 84 104 113 98 38 13 26 46 48 43 49 57 60 17 38 97 209 259 284 286 294 316 335 333 320 335 348 337 322 326 19 30 19 54 168 183 177 173 196 216 219 226 219 198 196 224 229 219 217 216 207 205 207 211 223 242 250 256 267 277 283 287 288 293 304 309 292 275 279 285 286 290 301 312 309 304 308 313 318 322 323 320 317
16 41 68 72 103 117 90 30 11 26 40 22 355 360 354 323 337 350 298 290 309 305 290 306 322 314 301 310 330 336 321 316 20 22 353 327 262 262 254 208 207 218 216 216 217 209 208 220 223 220 221 221 215 217 223 227 235 249 258 268 280 289 298 298 293 297 304 296 284 287 294 284 274 282 296 303 304 308 314 316 317 318 317 317 319
34 28 28 11 17 92 86 23 346 315 183 180 43 352 332 308 303 303 290 291 301 301 297 296 296 292 293 298 308 318 316 313 317 237 270 266 257 265 273 257 239 239 235 232 236 233 223 226 234 235 234 234 232 233 237 241 248 256 265 276 288 294 289 278 282 287 285 278 277 282 277 273 281 294 302 304 307 312 315 315 318 320 320 323 327
54 34 11 354 2 16 342 318 301 267 256 258 241 235 251 285 328 306 292 290 284 281 289 293 286 280 282 290 300 308 311 309 291 239 247 264 267 271 276 271 259 255 250 246 250 242 220 226 242 241 226 232 239 242 248 253 255 255 253 250 259 269 256 241 255 266 267 270 280 286 285 289 299 309 309 306 311 317 319 321 324 326 325 323 322
61 30 358 343 346 335 316 311 307 301 299 293 269 243 242 253 268 279 284 291 287 274 274 289 298 295 289 287 292 297 300 301 294 268 249 255 265 271 270 264 262 263 254 236 233 226 209 209 224 214 207 221 232 231 237 246 241 224 211 213 219 226 229 235 250 263 265 269 281 285 283 288 297 302 305 310 316 321 323 324 323 320 318 316 317
36 10 355 357 349 333 327 321 315 311 307 306 307 298 275 271 274 271 271 285 292 284 272 273 293 308 306 291 280 280 284 290 292 284 261 248 253 262 263 260 260 262 254 236 227 220 205 193 217 228 230 236 236 230 232 240 241 238 238 233 222 229 246 251 259 267 265 260 257 253 251 257 271 285 298 303 300 299 305 313 315 314 312 312 315
15 348 352 356 339 332 339 329 312 311 317 315 318 322 312 299 298 297 292 292 293 291 286 283 289 306 313 305 287 282 286 287 285 279 266 255 254 259 263 264 263 260 258 251 233 211 195 196 221 232 238 250 255 253 253 255 257 259 258 249 233 239 251 248 232 230 242 250 252 252 255 267 278 282 282 278 277 287 304 313 313 310 309 309 310
4 353 2 347 330 329 330 316 297 294 314 319 315 308 302 299 301 303 306 306 301 296 298 297 293 295 301 300 295 294 297 295 289 281 274 269 267 264 262 261 258 255 253 247 232 216 203 198 215 228 235 248 260 263 267 272 277 281 277 263 250 250 255 252 243 240 245 251 254 257 261 267 268 269 279 290 297 304 309 306 301 302 303 303 304
9 7 11 354 347 352 340 326 319 311 308 310 309 306 304 302 301 300 300 302 302 302 304 302 300 295 290 287 287 291 293 292 290 288 282 276 273 269 266 264 261 255 250 243 232 222 211 202 210 225 226 226 243 262 275 284 285 283 280 275 270 269 270 269 267 267 269 272 276 277 278 275 270 268 283 303 310 306 298 295 297 301 304 304 304
8 7 10 3 358 357 347 339 340 334 323 320 318 315 314 312 309 308 304 297 297 302 304 303 303 303 298 295 295 295 293 289 288 287 283 277 274 274 273 275 278 275 265 251 233 216 209 205 209 220 224 225 242 268 282 275 261 265 273 276 275 275 276 276 278 284 288 293 296 296 293 289 289 293 298 302 301 297 297 300 303 306 307 306 306
3 5 6 359 353 352 348 342 340 336 331 329 326 322 319 315 310 310 310 307 304 304 302 301 301 301 300 299 298 296 295 293 290 290 291 289 284 281 280 284 291 293 276 250 224 210 211 212 212 220 228 233 247 271 278 275 272 276 281 279 275 275 277 278 282 286 289 295 301 303 299 289 288 293 295 297 299 300 303 305 306 306 307 306 305
357 4 3 359 357 355 349 346 346 343 339 338 339 335 331 328 325 321 319 318 318 316 310 307 305 303 304 309 310 304 301 302 300 298 297 292 287 288 289 288 284 272 248 228 219 216 216 214 214 218 223 230 246 259 264 271 278 278 277 276 277 280 283 284 287 289 291 296 301 299 283 247 250 277 285 291 295 298 303 304 303 303 304 303 302
354 1 356 353 355 354 351 350 350 346 344 347 348 343 339 338 335 331 329 328 328 325 322 320 318 313 313 323 326 317 304 303 312 317 311 296 288 288 290 282 264 243 227 219 219 220 220 220 223 227 231 245 259 257 254 260 266 268 271 275 281 286 287 288 290 293 295 299 299 283 245 219 259 295 294 292 290 292 298 302 301 301 303 304 304